Gesamt
Essentia Hospital Airport (Fosston, MN) MN97 Wetter
There is no TAF data available at MN97 or any nearby airports.
There is no METAR data available at MN97. Showing METAR data for KFSE (2 mi W).
Aktueller METAR-Verlauf FSE (keine Daten für MN97)
| Date | Time (CDT) | Flight Rules | Wind Dir. | Speed | Type | Height AGL (ft) | Visibility | Temp (°C) | Temp (°F) | Dew Point (°C) | Dew Point (°F) | Rel. Humid. | Pressure | Density Altitude | Remarks |
|---|---|---|---|---|---|---|---|---|---|---|---|---|---|---|---|
| 07-Mai | 10:55 | VFR | 290° | 7 kt | 10 miles | 8° | 46° | -6° | 21° | 36% | 29.85 in Hg | 746 ft | |||
| 07-Mai | 10:35 | VFR | 290° | 6 kt | 10 miles | 7° | 44° | -6° | 21° | 39% | 29.85 in Hg | 626 ft | |||
| 07-Mai | 10:15 | VFR | 310° | 7 kt | 10 miles | 6° | 42° | -6° | 21° | 42% | 29.85 in Hg | 506 ft | |||
| 07-Mai | 09:55 | VFR | 290° | 5 kt | 10 miles | 5° | 41° | -6° | 21° | 45% | 29.85 in Hg | 386 ft | |||
| 07-Mai | 09:35 | VFR | 270° | 7 kt | 10 miles | 4° | 39° | -5° | 23° | 52% | 29.85 in Hg | 266 ft | |||
| 07-Mai | 09:15 | VFR | 270° | 7 kt | 10 miles | 3° | 37° | -5° | 23° | 56% | 29.86 in Hg | 136 ft | |||
| 07-Mai | 08:55 | VFR | 250° | 7 kt | 10 miles | 2° | 35° | -5° | 23° | 60% | 29.86 in Hg | 16 ft | |||
| 07-Mai | 08:15 | VFR | 230° | 7 kt | 10 miles | 0° | 32° | -5° | 23° | 69% | 29.86 in Hg | -224 ft | |||
| 07-Mai | 07:55 | VFR | 220° | 7 kt | 10 miles | -1° | 30° | -6° | 21° | 69% | 29.86 in Hg | -344 ft | |||
| 07-Mai | 07:35 | VFR | 210° | 7 kt | 10 miles | -2° | 28° | -6° | 21° | 74% | 29.86 in Hg | -464 ft | |||
| 07-Mai | 07:16 | VFR | 210° | 6 kt | 10 miles | -2° | 28° | -6° | 21° | 74% | 29.86 in Hg | -464 ft | |||
| 07-Mai | 06:55 | VFR | 190° | 5 kt | 10 miles | -3° | 26° | -6° | 21° | 80% | 29.86 in Hg | -584 ft | |||
| 07-Mai | 06:15 | VFR | 180° | 6 kt | 10 miles | -5° | 23° | -8° | 17° | 79% | 29.85 in Hg | -814 ft | |||
| 07-Mai | 05:55 | VFR | 190° | 5 kt | 10 miles | -5° | 23° | -8° | 17° | 79% | 29.85 in Hg | -814 ft | |||
| 07-Mai | 05:15 | VFR | 190° | 5 kt | 10 miles | -4° | 24° | -8° | 17° | 74% | 29.86 in Hg | -704 ft | |||
| 07-Mai | 04:55 | VFR | 190° | 5 kt | 10 miles | -4° | 24° | -7° | 19° | 80% | 29.86 in Hg | -704 ft | |||
| 07-Mai | 04:35 | VFR | 200° | 5 kt | 10 miles | -4° | 24° | -7° | 19° | 80% | 29.86 in Hg | -704 ft | |||
| 07-Mai | 04:15 | VFR | 200° | 4 kt | 10 miles | -4° | 24° | -7° | 19° | 80% | 29.86 in Hg | -704 ft | |||
| 07-Mai | 03:55 | VFR | 190° | 5 kt | 10 miles | -4° | 24° | -7° | 19° | 80% | 29.86 in Hg | -704 ft | |||
| 07-Mai | 03:15 | VFR | 200° | 5 kt | 10 miles | -4° | 24° | -7° | 19° | 80% | 29.87 in Hg | -714 ft | |||
| 07-Mai | 02:55 | VFR | 190° | 6 kt | 10 miles | -4° | 24° | -7° | 19° | 80% | 29.86 in Hg | -704 ft | |||
| 07-Mai | 02:15 | VFR | 190° | 5 kt | 10 miles | -4° | 24° | -7° | 19° | 80% | 29.87 in Hg | -714 ft | |||
| 07-Mai | 01:55 | VFR | 180° | 6 kt | 10 miles | -3° | 26° | -7° | 19° | 74% | 29.87 in Hg | -594 ft | |||
| 07-Mai | 01:35 | VFR | 190° | 6 kt | 10 miles | -3° | 26° | -7° | 19° | 74% | 29.88 in Hg | -604 ft |
Anmelden
| Ihr Browser wird nicht unterstützt. aktualisieren Sie Ihren Browser |
